Change the Weather History Date:

Wednesday, November 20, 2013

  Actual Average Record
Temperature  
Mean Temperature 50 °F -  
Max Temperature 64 °F 50 °F 64 °F (2013)
Min Temperature 36 °F 22 °F 14 °F (2014)
Degree Days  
Heating Degree Days 15    
Moisture  
Dew Point 24 °F    
Average Humidity 43    
Maximum Humidity 67    
Minimum Humidity 18    
Precipitation  
Precipitation 0.00 in - - ()
Sea Level Pressure  
Sea Level Pressure 29.80 in    
Wind  
Wind Speed 7 mph (West)    
Max Wind Speed 17 mph    
Max Gust Speed 23 mph    
Visibility 10 miles    
Events      
Averages and records for this station are not official NWS values.
T = Trace of Precipitation, MM = Missing Value Source: NWS Daily Summary

Daily Weather History Graph

Daily Weather History Graph

Search for Another Location

Airport or City:

Trip Planner

Search our weather history database for the weather conditions in past years. The results will help you decide how hot, cold, wet, or windy it might be!

Date:

Astronomy

Nov. 20, 2013 Rise Set
Actual Time 7:37 AM CST 5:27 PM CST
Civil Twilight 7:08 AM CST 5:56 PM CST
Nautical Twilight 6:35 AM CST 6:29 PM CST
Astronomical Twilight 6:03 AM CST 7:01 PM CST
Moon 8:12 PM CST (11/20) 10:04 AM CST (11/20)
Length of Visible Light 10h 48m
Length of Day
9h 49m
Waning Gibbous, 91% of the Moon is Illuminated
Nov 20
Waning Gibbous
Nov 25
Last Quarter
Dec 2
New
Dec 9
First Quarter
Dec 17
Full

Hourly Weather History & Observations

Time (CST) Temp. Windchill Dew Point Humidity Pressure Visibility Wind Dir Wind Speed Gust Speed Precip Events Conditions
12:15 AM 42.8 °F 37.0 °F 25.7 °F 51% 29.74 in 10.0 mi WSW 10.4 mph - N/A   Scattered Clouds
12:35 AM 41.9 °F 36.9 °F 25.3 °F 52% 29.74 in 10.0 mi WSW 8.1 mph - N/A   Scattered Clouds
12:55 AM 40.6 °F 35.4 °F 25.3 °F 54% 29.73 in 10.0 mi WSW 8.1 mph - N/A   Clear
1:15 AM 40.3 °F 35.5 °F 25.5 °F 56% 29.74 in 10.0 mi WSW 6.9 mph - N/A   Clear
1:35 AM 40.6 °F 37.5 °F 25.3 °F 54% 29.74 in 10.0 mi WSW 4.6 mph - N/A   Mostly Cloudy
1:55 AM 43.7 °F - 24.8 °F 47% 29.74 in 10.0 mi Calm Calm - N/A   Mostly Cloudy
2:15 AM 44.6 °F 40.7 °F 24.1 °F 44% 29.75 in 10.0 mi North 6.9 mph - N/A   Scattered Clouds
2:35 AM 44.4 °F 42.0 °F 24.4 °F 45% 29.75 in 10.0 mi NW 4.6 mph - N/A   Clear
2:55 AM 44.8 °F - 24.3 °F 45% 29.76 in 10.0 mi Calm Calm - N/A   Clear
3:15 AM 45.7 °F - 24.3 °F 43% 29.76 in 10.0 mi Calm Calm - N/A   Clear
3:35 AM 42.4 °F 39.6 °F 25.7 °F 52% 29.76 in 10.0 mi SW 4.6 mph - N/A   Scattered Clouds
3:55 AM 40.6 °F 36.7 °F 26.4 °F 57% 29.76 in 10.0 mi WSW 5.8 mph - N/A   Scattered Clouds
4:15 AM 41.4 °F 36.2 °F 25.5 °F 53% 29.76 in 10.0 mi SW 8.1 mph - N/A   Mostly Cloudy
4:35 AM 41.2 °F 36.6 °F 25.2 °F 53% 29.77 in 10.0 mi WSW 6.9 mph - N/A   Mostly Cloudy
4:55 AM 40.5 °F 35.1 °F 24.1 °F 52% 29.77 in 10.0 mi WSW 8.1 mph - N/A   Overcast
5:15 AM 39.2 °F 33.6 °F 23.7 °F 54% 29.77 in 10.0 mi WSW 8.1 mph - N/A   Scattered Clouds
5:35 AM 38.1 °F 32.9 °F 23.9 °F 57% 29.77 in 10.0 mi WSW 6.9 mph - N/A   Clear
5:55 AM 37.0 °F 31.6 °F 23.9 °F 59% 29.77 in 10.0 mi SW 6.9 mph - N/A   Clear
6:15 AM 36.7 °F 30.5 °F 24.1 °F 60% 29.78 in 10.0 mi WSW 8.1 mph - N/A   Clear
6:35 AM 37.0 °F 30.4 °F 25.2 °F 62% 29.79 in 10.0 mi WSW 9.2 mph - N/A   Clear
6:55 AM 37.4 °F 32.8 °F 25.3 °F 62% 29.78 in 10.0 mi WSW 5.8 mph - N/A   Scattered Clouds
7:15 AM 36.5 °F 30.3 °F 25.9 °F 65% 29.80 in 10.0 mi WSW 8.1 mph - N/A   Mostly Cloudy
7:35 AM 36.1 °F 28.7 °F 26.2 °F 67% 29.80 in 10.0 mi WSW 10.4 mph - N/A   Mostly Cloudy
7:55 AM 36.1 °F 28.7 °F 25.7 °F 66% 29.81 in 10.0 mi SW 10.4 mph - N/A   Scattered Clouds
8:15 AM 37.6 °F 31.0 °F 25.5 °F 62% 29.82 in 10.0 mi WSW 9.2 mph - N/A   Clear
8:35 AM 37.8 °F 31.8 °F 25.3 °F 61% 29.82 in 10.0 mi WSW 8.1 mph - N/A   Scattered Clouds
8:55 AM 39.7 °F 34.3 °F 26.1 °F 58% 29.82 in 10.0 mi WSW 8.1 mph - N/A   Scattered Clouds
9:15 AM 43.2 °F 39.7 °F 27.1 °F 53% 29.82 in 10.0 mi WSW 5.8 mph - N/A   Clear
9:35 AM 46.4 °F 42.4 °F 28.0 °F 49% 29.83 in 10.0 mi WSW 8.1 mph - N/A   Clear
9:55 AM 50.2 °F - 29.3 °F 45% 29.83 in 10.0 mi West 8.1 mph - N/A   Clear
10:15 AM 55.0 °F - 27.9 °F 35% 29.83 in 10.0 mi NNW 15.0 mph 18.4 mph N/A   Clear
10:35 AM 56.3 °F - 26.6 °F 32% 29.83 in 10.0 mi NNW 12.7 mph 18.4 mph N/A   Clear
10:55 AM 57.9 °F - 25.9 °F 29% 29.83 in 10.0 mi NW 11.5 mph 18.4 mph N/A   Clear
11:15 AM 59.0 °F - 25.9 °F 28% 29.82 in 10.0 mi NNW 10.4 mph 16.1 mph N/A   Clear
11:35 AM 60.6 °F - 24.6 °F 25% 29.81 in 10.0 mi North 13.8 mph 20.7 mph N/A   Clear
11:55 AM 61.7 °F - 21.9 °F 22% 29.81 in 10.0 mi NNW 17.3 mph 23.0 mph N/A   Clear
12:15 PM 62.6 °F - 21.0 °F 20% 29.79 in 10.0 mi NNW 16.1 mph - N/A   Clear
12:35 PM 62.6 °F - 20.3 °F 20% 29.79 in 10.0 mi NNW 13.8 mph 19.6 mph N/A   Clear
12:55 PM 63.9 °F - 21.0 °F 19% 29.79 in 10.0 mi NNW 11.5 mph 21.9 mph N/A   Clear
1:15 PM 63.3 °F - 21.9 °F 21% 29.79 in 10.0 mi NNW 11.5 mph 21.9 mph N/A   Clear
1:35 PM 63.3 °F - 20.7 °F 19% 29.78 in 10.0 mi NNW 11.5 mph - N/A   Clear
1:55 PM 63.5 °F - 20.5 °F 19% 29.77 in 10.0 mi NW 9.2 mph - N/A   Clear
2:15 PM 63.5 °F - 19.6 °F 19% 29.77 in 10.0 mi NW 8.1 mph - N/A   Clear
2:35 PM 63.9 °F - 19.6 °F 18% 29.76 in 10.0 mi West 6.9 mph - N/A   Clear
2:55 PM 64.0 °F - 19.2 °F 18% 29.76 in 10.0 mi West 9.2 mph 19.6 mph N/A   Clear
3:15 PM 64.8 °F - 19.4 °F 18% 29.76 in 10.0 mi West 10.4 mph - N/A   Clear
3:35 PM 64.4 °F - 19.4 °F 18% 29.76 in 10.0 mi West 9.2 mph - N/A   Clear
3:55 PM 63.7 °F - 19.4 °F 18% 29.76 in 10.0 mi West 8.1 mph - N/A   Clear
4:15 PM 63.3 °F - 19.0 °F 18% 29.76 in 10.0 mi NW 9.2 mph - N/A   Clear
4:35 PM 61.9 °F - 19.9 °F 20% 29.77 in 10.0 mi NW 5.8 mph - N/A   Clear
4:55 PM 59.4 °F - 20.3 °F 22% 29.77 in 10.0 mi North 4.6 mph - N/A   Clear
5:15 PM 59.0 °F - 20.7 °F 23% 29.78 in 10.0 mi Calm Calm - N/A   Clear
5:35 PM 56.1 °F - 21.2 °F 26% 29.79 in 10.0 mi NNE 3.5 mph - N/A   Clear
5:55 PM 52.2 °F - 21.9 °F 31% 29.79 in 10.0 mi ENE 4.6 mph - N/A   Clear
6:15 PM 49.5 °F - 21.9 °F 34% 29.80 in 10.0 mi East 3.5 mph - N/A   Clear
6:35 PM 47.1 °F - 23.0 °F 39% 29.81 in 10.0 mi ESE 5.8 mph - N/A   Clear
6:55 PM 44.8 °F 42.4 °F 24.1 °F 44% 29.81 in 10.0 mi SE 4.6 mph - N/A   Clear
7:15 PM 43.2 °F 38.4 °F 25.2 °F 49% 29.82 in 10.0 mi SE 8.1 mph - N/A   Clear
7:35 PM 44.2 °F - 25.7 °F 48% 29.83 in 10.0 mi Calm Calm - N/A   Clear
7:55 PM 45.0 °F 40.1 °F 26.2 °F 48% 29.83 in 10.0 mi SSE 9.2 mph - N/A   Clear
8:15 PM 45.5 °F 41.8 °F 25.7 °F 46% 29.84 in 10.0 mi SSE 6.9 mph - N/A   Clear
8:35 PM 46.2 °F 41.7 °F 25.7 °F 45% 29.84 in 10.0 mi SSE 9.2 mph - N/A   Clear
8:55 PM 43.3 °F 38.6 °F 25.5 °F 49% 29.86 in 10.0 mi West 8.1 mph - N/A   Clear
9:15 PM 41.4 °F 37.6 °F 25.5 °F 53% 29.86 in 10.0 mi WSW 5.8 mph - N/A   Clear
9:35 PM 40.1 °F 36.1 °F 26.1 °F 57% 29.88 in 10.0 mi SW 5.8 mph - N/A   Clear
9:55 PM 39.6 °F - 26.1 °F 58% 29.88 in 10.0 mi Calm Calm - N/A   Scattered Clouds
10:15 PM 41.5 °F - 25.7 °F 53% 29.89 in 10.0 mi Calm Calm - N/A   Scattered Clouds
10:35 PM 42.6 °F - 25.7 °F 51% 29.89 in 10.0 mi Calm Calm - N/A   Mostly Cloudy
10:55 PM 39.7 °F 35.6 °F 26.8 °F 60% 29.89 in 10.0 mi SW 5.8 mph - N/A   Scattered Clouds
11:15 PM 40.3 °F 38.2 °F 26.6 °F 58% 29.89 in 10.0 mi WSW 3.5 mph - N/A   Scattered Clouds
11:35 PM 41.5 °F - 26.4 °F 55% 29.89 in 10.0 mi Calm Calm - N/A   Mostly Cloudy
11:55 PM 41.2 °F - 26.6 °F 56% 29.89 in 10.0 mi Calm Calm - N/A   Overcast